Time,TemperatureF,DewpointF,PressureIn,WindDirection,WindDirectionDegrees,WindSpeedMPH,WindSpeedGustMPH,Humidity,HourlyPrecipIn,Conditions,Clouds,dailyrainin,SoftwareType,DateUTC
2013-03-28 00:01:00,35.3,27.5,30.36,ENE,68,0.0,1.0,73,0.00,,,0.00,WeatherCatV1.02B3,2013-03-28 05:01:00,
2013-03-28 00:06:00,35.3,27.9,30.37,ENE,68,0.0,0.0,74,0.00,,,0.00,WeatherCatV1.02B3,2013-03-28 05:06:00,
2013-03-28 00:11:00,35.2,27.8,30.37,ENE,68,0.0,0.0,74,0.00,,,0.00,WeatherCatV1.02B3,2013-03-28 05:11:00,
2013-03-28 00:16:00,35.1,27.7,30.36,East,83,0.0,1.0,74,0.00,,,0.00,WeatherCatV1.02B3,2013-03-28 05:16:00,
2013-03-28 00:21:00,35.2,27.8,30.36,ENE,72,0.0,1.0,74,0.00,,,0.00,WeatherCatV1.02B3,2013-03-28 05:21:00,
2013-03-28 00:26:00,35.0,28.2,30.37,ENE,71,0.0,1.0,76,0.00,,,0.00,WeatherCatV1.02B3,2013-03-28 05:26:00,
2013-03-28 00:31:00,34.9,27.8,30.36,ENE,73,0.0,1.0,75,0.00,,,0.00,WeatherCatV1.02B3,2013-03-28 05:31:00,
2013-03-28 00:36:00,34.9,27.5,30.36,East,94,0.0,2.0,74,0.00,,,0.00,WeatherCatV1.02B3,2013-03-28 05:36:00,
2013-03-28 00:41:00,34.9,27.8,30.36,East,84,0.0,0.0,75,0.00,,,0.00,WeatherCatV1.02B3,2013-03-28 05:41:00,
2013-03-28 00:46:00,34.8,27.7,30.36,East,84,0.0,1.0,75,0.00,,,0.00,WeatherCatV1.02B3,2013-03-28 05:46:00,
2013-03-28 00:51:00,34.8,27.7,30.36,ENE,74,1.0,1.0,75,0.00,,,0.00,WeatherCatV1.02B3,2013-03-28 05:51:00,
2013-03-28 00:56:00,34.7,27.9,30.36,ESE,106,0.0,1.0,76,0.00,,,0.00,WeatherCatV1.02B3,2013-03-28 05:56:00,
2013-03-28 01:01:00,34.7,27.6,30.36,East,79,0.0,1.0,75,0.00,,,0.00,WeatherCatV1.02B3,2013-03-28 06:01:00,
2013-03-28 01:06:00,34.6,27.5,30.36,East,79,0.0,1.0,75,0.00,,,0.00,WeatherCatV1.02B3,2013-03-28 06:06:00,
2013-03-28 01:11:00,34.6,27.5,30.36,East,79,0.0,2.0,75,0.00,,,0.00,WeatherCatV1.02B3,2013-03-28 06:11:00,
2013-03-28 01:16:00,34.5,27.7,30.36,East,79,0.0,1.0,76,0.00,,,0.00,WeatherCatV1.02B3,2013-03-28 06:16:00,
2013-03-28 01:21:00,34.4,27.6,30.36,East,79,0.0,1.0,76,0.00,,,0.00,WeatherCatV1.02B3,2013-03-28 06:21:00,
2013-03-28 01:26:00,34.3,27.2,30.36,East,81,0.0,1.0,75,0.00,,,0.00,WeatherCatV1.02B3,2013-03-28 06:26:00,
2013-03-28 01:31:00,34.3,27.5,30.36,East,80,0.0,1.0,76,0.00,,,0.00,WeatherCatV1.02B3,2013-03-28 06:31:00,
2013-03-28 01:36:00,34.4,27.3,30.36,ESE,105,0.0,0.0,75,0.00,,,0.00,WeatherCatV1.02B3,2013-03-28 06:36:00,
2013-03-28 01:41:00,34.4,27.0,30.36,East,80,0.0,0.0,74,0.00,,,0.00,WeatherCatV1.02B3,2013-03-28 06:41:00,
2013-03-28 01:46:00,34.3,27.2,30.36,East,81,0.0,0.0,75,0.00,,,0.00,WeatherCatV1.02B3,2013-03-28 06:46:00,
2013-03-28 01:51:00,34.1,27.0,30.36,East,81,0.0,0.0,75,0.00,,,0.00,WeatherCatV1.02B3,2013-03-28 06:51:00,
2013-03-28 01:56:00,34.0,26.9,30.35,East,81,0.0,0.0,75,0.00,,,0.00,WeatherCatV1.02B3,2013-03-28 06:56:00,
2013-03-28 02:01:00,34.1,26.7,30.35,East,85,0.0,1.0,74,0.00,,,0.00,WeatherCatV1.02B3,2013-03-28 07:01:00,
2013-03-28 02:06:00,34.1,26.7,30.35,East,94,0.0,0.0,74,0.00,,,0.00,WeatherCatV1.02B3,2013-03-28 07:06:00,
2013-03-28 02:11:00,34.2,26.8,30.36,East,93,0.0,1.0,74,0.00,,,0.00,WeatherCatV1.02B3,2013-03-28 07:11:00,
2013-03-28 02:16:00,34.1,27.0,30.36,East,93,0.0,0.0,75,0.00,,,0.00,WeatherCatV1.02B3,2013-03-28 07:16:00,
2013-03-28 02:21:00,34.1,27.0,30.35,East,98,0.0,0.0,75,0.00,,,0.00,WeatherCatV1.02B3,2013-03-28 07:21:00,
2013-03-28 02:26:00,34.1,27.0,30.36,East,99,0.0,0.0,75,0.00,,,0.00,WeatherCatV1.02B3,2013-03-28 07:26:00,
2013-03-28 02:31:00,34.1,27.0,30.35,East,99,0.0,0.0,75,0.00,,,0.00,WeatherCatV1.02B3,2013-03-28 07:31:00,
2013-03-28 02:36:00,34.1,27.0,30.35,East,99,0.0,0.0,75,0.00,,,0.00,WeatherCatV1.02B3,2013-03-28 07:36:00,
2013-03-28 02:41:00,33.9,27.1,30.36,East,99,0.0,0.0,76,0.00,,,0.00,WeatherCatV1.02B3,2013-03-28 07:41:00,
2013-03-28 02:46:00,33.9,27.1,30.35,ESE,105,0.0,0.0,76,0.00,,,0.00,WeatherCatV1.02B3,2013-03-28 07:46:00,
2013-03-28 02:51:00,33.7,27.0,30.35,ESE,104,0.0,0.0,76,0.00,,,0.00,WeatherCatV1.02B3,2013-03-28 07:51:00,
2013-03-28 02:56:00,33.6,27.5,30.35,ESE,105,0.0,1.0,78,0.00,,,0.00,WeatherCatV1.02B3,2013-03-28 07:56:00,
2013-03-28 03:01:00,33.4,27.3,30.35,ESE,105,0.0,0.0,78,0.00,,,0.00,WeatherCatV1.02B3,2013-03-28 08:01:00,
2013-03-28 03:06:00,33.3,27.2,30.35,ESE,105,0.0,0.0,78,0.00,,,0.00,WeatherCatV1.02B3,2013-03-28 08:06:00,
2013-03-28 03:11:00,33.1,27.0,30.35,ESE,105,0.0,0.0,78,0.00,,,0.00,WeatherCatV1.02B3,2013-03-28 08:11:00,
2013-03-28 03:16:00,33.0,27.5,30.35,ESE,105,0.0,0.0,80,0.00,,,0.00,WeatherCatV1.02B3,2013-03-28 08:16:00,
2013-03-28 03:21:00,32.7,27.2,30.35,ESE,105,0.0,0.0,80,0.00,,,0.00,WeatherCatV1.02B3,2013-03-28 08:21:00,
2013-03-28 03:26:00,32.4,26.9,30.35,ESE,105,0.0,0.0,80,0.00,,,0.00,WeatherCatV1.02B3,2013-03-28 08:26:00,
2013-03-28 03:31:00,32.2,27.0,30.35,ESE,105,0.0,0.0,81,0.00,,,0.00,WeatherCatV1.02B3,2013-03-28 08:31:00,
2013-03-28 03:36:00,32.3,27.1,30.35,ESE,105,0.0,1.0,81,0.00,,,0.00,WeatherCatV1.02B3,2013-03-28 08:36:00,
2013-03-28 03:41:00,32.4,27.2,30.35,ESE,105,0.0,0.0,81,0.00,,,0.00,WeatherCatV1.02B3,2013-03-28 08:41:00,
2013-03-28 03:46:00,32.3,27.1,30.35,ESE,104,0.0,0.0,81,0.00,,,0.00,WeatherCatV1.02B3,2013-03-28 08:46:00,
2013-03-28 03:51:00,32.2,27.3,30.35,ESE,105,0.0,0.0,82,0.00,,,0.00,WeatherCatV1.02B3,2013-03-28 08:51:00,
2013-03-28 03:56:00,32.0,27.4,30.35,ESE,105,0.0,0.0,83,0.00,,,0.00,WeatherCatV1.02B3,2013-03-28 08:56:00,
2013-03-28 04:01:00,31.9,27.3,30.35,ESE,104,0.0,0.0,83,0.00,,,0.00,WeatherCatV1.02B3,2013-03-28 09:01:00,
2013-03-28 04:06:00,32.0,27.7,30.35,ESE,105,0.0,0.0,84,0.00,,,0.00,WeatherCatV1.02B3,2013-03-28 09:06:00,
2013-03-28 04:11:00,32.1,27.5,30.35,ESE,105,0.0,0.0,83,0.00,,,0.00,WeatherCatV1.02B3,2013-03-28 09:11:00,
2013-03-28 04:16:00,32.2,27.3,30.35,ESE,105,0.0,0.0,82,0.00,,,0.00,WeatherCatV1.02B3,2013-03-28 09:16:00,
2013-03-28 04:21:00,32.3,27.4,30.35,ESE,105,0.0,0.0,82,0.00,,,0.00,WeatherCatV1.02B3,2013-03-28 09:21:00,
2013-03-28 04:26:00,32.5,27.3,30.35,ESE,105,0.0,0.0,81,0.00,,,0.00,WeatherCatV1.02B3,2013-03-28 09:26:00,
2013-03-28 04:31:00,32.6,27.7,30.35,ESE,105,0.0,0.0,82,0.00,,,0.00,WeatherCatV1.02B3,2013-03-28 09:31:00,
2013-03-28 04:36:00,32.8,27.6,30.35,ESE,105,0.0,0.0,81,0.00,,,0.00,WeatherCatV1.02B3,2013-03-28 09:36:00,
2013-03-28 04:41:00,32.8,27.9,30.36,ESE,105,0.0,0.0,82,0.00,,,0.00,WeatherCatV1.02B3,2013-03-28 09:41:00,
2013-03-28 04:46:00,32.9,27.7,30.35,ESE,105,0.0,0.0,81,0.00,,,0.00,WeatherCatV1.02B3,2013-03-28 09:46:00,
2013-03-28 04:51:00,33.2,28.0,30.36,ESE,105,0.0,0.0,81,0.00,,,0.00,WeatherCatV1.02B3,2013-03-28 09:51:00,
2013-03-28 04:56:00,33.2,28.0,30.36,ESE,104,0.0,0.0,81,0.00,,,0.00,WeatherCatV1.02B3,2013-03-28 09:56:00,
2013-03-28 05:01:00,33.3,28.1,30.36,ESE,105,0.0,0.0,81,0.00,,,0.00,WeatherCatV1.02B3,2013-03-28 10:01:00,
2013-03-28 05:06:00,33.3,28.4,30.36,ESE,105,0.0,0.0,82,0.00,,,0.00,WeatherCatV1.02B3,2013-03-28 10:06:00,
2013-03-28 05:11:00,33.2,28.0,30.36,ESE,105,0.0,0.0,81,0.00,,,0.00,WeatherCatV1.02B3,2013-03-28 10:11:00,
2013-03-28 05:16:00,33.3,28.4,30.36,East,101,0.0,1.0,82,0.00,,,0.00,WeatherCatV1.02B3,2013-03-28 10:16:00,
2013-03-28 05:21:00,33.3,28.4,30.36,East,101,0.0,0.0,82,0.00,,,0.00,WeatherCatV1.02B3,2013-03-28 10:21:00,
2013-03-28 05:26:00,33.4,28.2,30.37,East,101,0.0,0.0,81,0.00,,,0.00,WeatherCatV1.02B3,2013-03-28 10:26:00,
2013-03-28 05:31:00,33.5,28.6,30.36,ESE,102,0.0,0.0,82,0.00,,,0.00,WeatherCatV1.02B3,2013-03-28 10:31:00,
2013-03-28 05:36:00,33.5,28.3,30.36,East,81,0.0,1.0,81,0.00,,,0.00,WeatherCatV1.02B3,2013-03-28 10:36:00,
2013-03-28 05:41:00,33.5,28.3,30.36,East,80,0.0,0.0,81,0.00,,,0.00,WeatherCatV1.02B3,2013-03-28 10:41:00,
2013-03-28 05:46:00,33.6,28.1,30.37,East,81,0.0,0.0,80,0.00,,,0.00,WeatherCatV1.02B3,2013-03-28 10:46:00,
2013-03-28 05:51:00,33.8,28.3,30.37,South,179,0.0,1.0,80,0.00,,,0.00,WeatherCatV1.02B3,2013-03-28 10:51:00,
2013-03-28 05:56:00,33.9,28.1,30.37,SE,131,0.0,0.0,79,0.00,,,0.00,WeatherCatV1.02B3,2013-03-28 10:56:00,
2013-03-28 06:01:00,34.0,28.2,30.37,SE,130,0.0,1.0,79,0.00,,,0.00,WeatherCatV1.02B3,2013-03-28 11:01:00,
2013-03-28 06:06:00,34.0,28.2,30.37,East,93,1.0,1.0,79,0.00,,,0.00,WeatherCatV1.02B3,2013-03-28 11:06:00,
2013-03-28 06:11:00,33.9,28.1,30.37,East,95,0.0,0.0,79,0.00,,,0.00,WeatherCatV1.02B3,2013-03-28 11:11:00,
2013-03-28 06:16:00,34.0,27.9,30.37,East,90,0.0,0.0,78,0.00,,,0.00,WeatherCatV1.02B3,2013-03-28 11:16:00,
2013-03-28 06:21:00,34.0,27.9,30.37,East,100,0.0,1.0,78,0.00,,,0.00,WeatherCatV1.02B3,2013-03-28 11:21:00,
2013-03-28 06:26:00,33.9,27.8,30.37,East,100,0.0,0.0,78,0.00,,,0.00,WeatherCatV1.02B3,2013-03-28 11:26:00,
2013-03-28 06:31:00,33.7,27.6,30.37,East,99,0.0,0.0,78,0.00,,,0.00,WeatherCatV1.02B3,2013-03-28 11:31:00,
2013-03-28 06:36:00,33.4,27.6,30.37,East,83,0.0,0.0,79,0.00,,,0.00,WeatherCatV1.02B3,2013-03-28 11:36:00,
2013-03-28 06:41:00,33.3,27.5,30.37,SE,131,0.0,0.0,79,0.00,,,0.00,WeatherCatV1.02B3,2013-03-28 11:41:00,
2013-03-28 06:46:00,33.3,27.2,30.37,SE,131,0.0,0.0,78,0.00,,,0.00,WeatherCatV1.02B3,2013-03-28 11:46:00,
2013-03-28 06:51:00,33.1,27.3,30.37,SE,131,0.0,0.0,79,0.00,,,0.00,WeatherCatV1.02B3,2013-03-28 11:51:00,
2013-03-28 06:56:00,33.0,27.2,30.37,SE,131,0.0,0.0,79,0.00,,,0.00,WeatherCatV1.02B3,2013-03-28 11:56:00,
2013-03-28 07:01:00,32.7,27.2,30.38,SE,131,0.0,0.0,80,0.00,,,0.00,WeatherCatV1.02B3,2013-03-28 12:01:00,
2013-03-28 07:06:00,32.4,27.2,30.38,SE,131,0.0,0.0,81,0.00,,,0.00,WeatherCatV1.02B3,2013-03-28 12:06:00,
2013-03-28 07:11:00,32.3,27.1,30.38,SE,131,0.0,0.0,81,0.00,,,0.00,WeatherCatV1.02B3,2013-03-28 12:11:00,
2013-03-28 07:16:00,32.3,27.1,30.38,SE,131,0.0,0.0,81,0.00,,,0.00,WeatherCatV1.02B3,2013-03-28 12:16:00,
2013-03-28 07:21:00,32.2,27.0,30.38,SE,131,0.0,0.0,81,0.00,,,0.00,WeatherCatV1.02B3,2013-03-28 12:21:00,
2013-03-28 07:26:00,32.1,27.2,30.38,SE,131,0.0,1.0,82,0.00,,,0.00,WeatherCatV1.02B3,2013-03-28 12:26:00,
2013-03-28 07:31:00,32.2,27.3,30.38,ESE,110,0.0,0.0,82,0.00,,,0.00,WeatherCatV1.02B3,2013-03-28 12:31:00,
2013-03-28 07:36:00,32.2,27.3,30.37,ESE,110,0.0,1.0,82,0.00,,,0.00,WeatherCatV1.02B3,2013-03-28 12:36:00,
2013-03-28 07:41:00,32.1,27.5,30.38,ESE,110,0.0,0.0,83,0.00,,,0.00,WeatherCatV1.02B3,2013-03-28 12:41:00,
2013-03-28 07:46:00,32.3,27.7,30.38,East,83,0.0,2.0,83,0.00,,,0.00,WeatherCatV1.02B3,2013-03-28 12:46:00,
2013-03-28 07:51:00,33.1,27.9,30.38,ESE,108,0.0,0.0,81,0.00,,,0.00,WeatherCatV1.02B3,2013-03-28 12:51:00,
2013-03-28 07:56:00,34.1,27.7,30.38,ESE,113,0.0,1.0,77,0.00,,,0.00,WeatherCatV1.02B3,2013-03-28 12:56:00,
2013-03-28 08:01:00,34.9,27.8,30.39,East,79,1.0,1.0,75,0.00,,,0.00,WeatherCatV1.02B3,2013-03-28 13:01:00,
2013-03-28 08:06:00,35.5,27.7,30.39,ESE,103,0.0,1.0,73,0.00,,,0.00,WeatherCatV1.02B3,2013-03-28 13:06:00,
2013-03-28 08:11:00,35.9,27.4,30.39,ESE,108,2.0,3.0,71,0.00,,,0.00,WeatherCatV1.02B3,2013-03-28 13:11:00,
2013-03-28 08:16:00,36.3,27.5,30.39,ESE,113,1.0,2.0,70,0.00,,,0.00,WeatherCatV1.02B3,2013-03-28 13:16:00,
2013-03-28 08:21:00,36.3,27.5,30.39,East,84,2.0,4.0,70,0.00,,,0.00,WeatherCatV1.02B3,2013-03-28 13:21:00,
2013-03-28 08:26:00,36.4,27.6,30.38,East,90,3.0,4.0,70,0.00,,,0.00,WeatherCatV1.02B3,2013-03-28 13:26:00,
2013-03-28 08:31:00,36.5,27.0,30.38,ESE,103,3.0,4.0,68,0.00,,,0.00,WeatherCatV1.02B3,2013-03-28 13:31:00,
2013-03-28 08:36:00,36.8,27.2,30.38,ESE,105,2.0,6.0,68,0.00,,,0.00,WeatherCatV1.02B3,2013-03-28 13:36:00,
2013-03-28 08:41:00,37.2,27.3,30.38,ESE,102,1.0,2.0,67,0.00,,,0.00,WeatherCatV1.02B3,2013-03-28 13:41:00,
2013-03-28 08:46:00,37.4,27.1,30.38,East,89,1.0,3.0,66,0.00,,,0.00,WeatherCatV1.02B3,2013-03-28 13:46:00,
2013-03-28 08:51:00,37.7,27.4,30.39,East,79,2.0,3.0,66,0.00,,,0.00,WeatherCatV1.02B3,2013-03-28 13:51:00,
2013-03-28 08:56:00,38.4,27.7,30.39,SE,131,1.0,2.0,65,0.00,,,0.00,WeatherCatV1.02B3,2013-03-28 13:56:00,
2013-03-28 09:01:00,39.0,27.9,30.39,SSE,160,1.0,3.0,64,0.00,,,0.00,WeatherCatV1.02B3,2013-03-28 14:01:00,
2013-03-28 09:06:00,39.7,28.5,30.39,ESE,104,1.0,4.0,64,0.00,,,0.00,WeatherCatV1.02B3,2013-03-28 14:06:00,
2013-03-28 09:11:00,39.7,27.8,30.39,East,87,0.0,5.0,62,0.00,,,0.00,WeatherCatV1.02B3,2013-03-28 14:11:00,
2013-03-28 09:16:00,39.7,28.2,30.39,East,99,0.0,3.0,63,0.00,,,0.00,WeatherCatV1.02B3,2013-03-28 14:16:00,
2013-03-28 09:21:00,40.2,28.2,30.38,ESE,120,1.0,2.0,62,0.00,,,0.00,WeatherCatV1.02B3,2013-03-28 14:21:00,
2013-03-28 09:26:00,40.6,27.8,30.39,ENE,75,2.0,4.0,60,0.00,,,0.00,WeatherCatV1.02B3,2013-03-28 14:26:00,
2013-03-28 09:31:00,40.8,27.6,30.39,SE,138,1.0,2.0,59,0.00,,,0.00,WeatherCatV1.02B3,2013-03-28 14:31:00,
2013-03-28 09:36:00,41.1,27.5,30.39,SE,129,1.0,2.0,58,0.00,,,0.00,WeatherCatV1.02B3,2013-03-28 14:36:00,
2013-03-28 09:41:00,41.4,28.2,30.39,ENE,71,3.0,4.0,59,0.00,,,0.00,WeatherCatV1.02B3,2013-03-28 14:41:00,
2013-03-28 09:46:00,41.6,28.8,30.39,SE,137,2.0,3.0,60,0.00,,,0.00,WeatherCatV1.02B3,2013-03-28 14:46:00,
2013-03-28 09:51:00,41.8,28.5,30.39,SE,141,1.0,4.0,59,0.00,,,0.00,WeatherCatV1.02B3,2013-03-28 14:51:00,
2013-03-28 09:56:00,42.1,29.2,30.39,SE,130,1.0,2.0,60,0.00,,,0.00,WeatherCatV1.02B3,2013-03-28 14:56:00,
2013-03-28 10:01:00,42.3,29.0,30.39,SSE,155,2.0,5.0,59,0.00,,,0.00,WeatherCatV1.02B3,2013-03-28 15:01:00,
2013-03-28 10:06:00,42.5,29.6,30.39,SE,139,2.0,2.0,60,0.00,,,0.00,WeatherCatV1.02B3,2013-03-28 15:06:00,
2013-03-28 10:11:00,42.8,29.9,30.40,SE,132,1.0,2.0,60,0.00,,,0.00,WeatherCatV1.02B3,2013-03-28 15:11:00,
2013-03-28 10:16:00,43.3,31.2,30.40,East,84,1.0,2.0,62,0.00,,,0.00,WeatherCatV1.02B3,2013-03-28 15:16:00,
2013-03-28 10:21:00,43.3,30.8,30.39,ESE,105,1.0,1.0,61,0.00,,,0.00,WeatherCatV1.02B3,2013-03-28 15:21:00,
2013-03-28 10:26:00,43.6,31.0,30.39,South,179,0.0,3.0,61,0.00,,,0.00,WeatherCatV1.02B3,2013-03-28 15:26:00,
2013-03-28 10:31:00,44.0,31.0,30.39,SSE,150,1.0,3.0,60,0.00,,,0.00,WeatherCatV1.02B3,2013-03-28 15:31:00,
2013-03-28 10:36:00,44.4,31.0,30.39,East,90,2.0,4.0,59,0.00,,,0.00,WeatherCatV1.02B3,2013-03-28 15:36:00,
2013-03-28 10:41:00,44.3,31.3,30.39,SE,143,1.0,2.0,60,0.00,,,0.00,WeatherCatV1.02B3,2013-03-28 15:41:00,
2013-03-28 10:46:00,44.7,31.7,30.39,ESE,114,4.0,4.0,60,0.00,,,0.00,WeatherCatV1.02B3,2013-03-28 15:46:00,
2013-03-28 10:51:00,44.5,31.1,30.39,ESE,117,6.0,7.0,59,0.00,,,0.00,WeatherCatV1.02B3,2013-03-28 15:51:00,
2013-03-28 10:56:00,44.5,32.3,30.39,SE,132,0.0,5.0,62,0.00,,,0.00,WeatherCatV1.02B3,2013-03-28 15:56:00,
2013-03-28 11:01:00,45.4,32.7,30.38,SSE,153,2.0,3.0,61,0.00,,,0.00,WeatherCatV1.02B3,2013-03-28 16:01:00,
2013-03-28 11:06:00,45.6,32.1,30.38,East,101,3.0,4.0,59,0.00,,,0.00,WeatherCatV1.02B3,2013-03-28 16:06:00,
2013-03-28 11:11:00,45.6,31.3,30.38,SE,139,2.0,5.0,57,0.00,,,0.00,WeatherCatV1.02B3,2013-03-28 16:11:00,
2013-03-28 11:16:00,45.5,31.6,30.39,SE,136,2.0,2.0,58,0.00,,,0.00,WeatherCatV1.02B3,2013-03-28 16:16:00,
2013-03-28 11:21:00,45.5,31.6,30.38,SE,132,1.0,4.0,58,0.00,,,0.00,WeatherCatV1.02B3,2013-03-28 16:21:00,
2013-03-28 11:26:00,45.8,31.9,30.38,ESE,122,1.0,6.0,58,0.00,,,0.00,WeatherCatV1.02B3,2013-03-28 16:26:00,
2013-03-28 11:31:00,46.4,32.4,30.39,East,79,2.0,3.0,58,0.00,,,0.00,WeatherCatV1.02B3,2013-03-28 16:31:00,
2013-03-28 11:36:00,46.6,32.6,30.38,SSE,155,1.0,2.0,58,0.00,,,0.00,WeatherCatV1.02B3,2013-03-28 16:36:00,
2013-03-28 11:41:00,47.4,33.4,30.38,ESE,106,1.0,2.0,58,0.00,,,0.00,WeatherCatV1.02B3,2013-03-28 16:41:00,
2013-03-28 11:46:00,47.8,32.4,30.38,East,95,3.0,7.0,55,0.00,,,0.00,WeatherCatV1.02B3,2013-03-28 16:46:00,
2013-03-28 11:51:00,47.9,34.3,30.38,ESE,108,1.0,4.0,59,0.00,,,0.00,WeatherCatV1.02B3,2013-03-28 16:51:00,
2013-03-28 11:56:00,47.7,33.2,30.38,East,96,0.0,1.0,57,0.00,,,0.00,WeatherCatV1.02B3,2013-03-28 16:56:00,
2013-03-28 12:01:00,47.4,32.9,30.38,East,79,2.0,4.0,57,0.00,,,0.00,WeatherCatV1.02B3,2013-03-28 17:01:00,
2013-03-28 12:06:00,47.2,32.8,30.37,East,98,3.0,6.0,57,0.00,,,0.00,WeatherCatV1.02B3,2013-03-28 17:06:00,
2013-03-28 12:11:00,47.5,34.7,30.37,ESE,110,1.0,4.0,61,0.00,,,0.00,WeatherCatV1.02B3,2013-03-28 17:11:00,
2013-03-28 12:16:00,48.0,34.8,30.37,East,93,0.0,3.0,60,0.00,,,0.00,WeatherCatV1.02B3,2013-03-28 17:16:00,
2013-03-28 12:21:00,48.3,33.8,30.37,SE,134,1.0,4.0,57,0.00,,,0.00,WeatherCatV1.02B3,2013-03-28 17:21:00,
2013-03-28 12:26:00,48.6,34.5,30.37,East,84,0.0,3.0,58,0.00,,,0.00,WeatherCatV1.02B3,2013-03-28 17:26:00,
2013-03-28 12:31:00,48.9,35.2,30.37,ESE,103,2.0,4.0,59,0.00,,,0.00,WeatherCatV1.02B3,2013-03-28 17:31:00,
2013-03-28 12:36:00,49.2,34.2,30.36,SE,127,2.0,3.0,56,0.00,,,0.00,WeatherCatV1.02B3,2013-03-28 17:36:00,
2013-03-28 12:41:00,49.3,34.7,30.36,SE,142,1.0,2.0,57,0.00,,,0.00,WeatherCatV1.02B3,2013-03-28 17:41:00,
2013-03-28 12:46:00,49.9,35.3,30.36,ESE,119,1.0,2.0,57,0.00,,,0.00,WeatherCatV1.02B3,2013-03-28 17:46:00,
2013-03-28 12:51:00,50.4,37.0,30.36,ESE,117,2.0,2.0,60,0.00,,,0.00,WeatherCatV1.02B3,2013-03-28 17:51:00,
2013-03-28 12:56:00,50.4,35.7,30.35,ESE,105,5.0,6.0,57,0.00,,,0.00,WeatherCatV1.02B3,2013-03-28 17:56:00,
2013-03-28 13:01:00,50.2,36.9,30.35,SSW,197,3.0,3.0,60,0.00,,,0.00,WeatherCatV1.02B3,2013-03-28 18:01:00,
2013-03-28 13:06:00,50.6,38.1,30.35,SE,133,3.0,4.0,62,0.00,,,0.00,WeatherCatV1.02B3,2013-03-28 18:06:00,
2013-03-28 13:11:00,50.8,38.7,30.35,SSE,147,2.0,2.0,63,0.00,,,0.00,WeatherCatV1.02B3,2013-03-28 18:11:00,
2013-03-28 13:16:00,50.5,35.4,30.35,ESE,107,4.0,7.0,56,0.00,,,0.00,WeatherCatV1.02B3,2013-03-28 18:16:00,
2013-03-28 13:21:00,50.0,36.2,30.35,SE,132,2.0,4.0,59,0.00,,,0.00,WeatherCatV1.02B3,2013-03-28 18:21:00,
2013-03-28 13:26:00,50.1,36.3,30.35,SSE,152,1.0,3.0,59,0.00,,,0.00,WeatherCatV1.02B3,2013-03-28 18:26:00,
2013-03-28 13:31:00,50.6,36.4,30.34,ESE,108,4.0,5.0,58,0.00,,,0.00,WeatherCatV1.02B3,2013-03-28 18:31:00,
2013-03-28 13:36:00,50.6,36.4,30.35,SSE,158,2.0,5.0,58,0.00,,,0.00,WeatherCatV1.02B3,2013-03-28 18:36:00,
2013-03-28 13:41:00,50.6,35.9,30.34,East,98,3.0,6.0,57,0.00,,,0.00,WeatherCatV1.02B3,2013-03-28 18:41:00,
2013-03-28 13:46:00,51.0,37.2,30.34,ESE,109,4.0,4.0,59,0.00,,,0.00,WeatherCatV1.02B3,2013-03-28 18:46:00,
2013-03-28 13:51:00,50.7,35.6,30.34,ESE,110,3.0,4.0,56,0.00,,,0.00,WeatherCatV1.02B3,2013-03-28 18:51:00,
2013-03-28 13:56:00,50.9,36.2,30.34,SE,125,0.0,3.0,57,0.00,,,0.00,WeatherCatV1.02B3,2013-03-28 18:56:00,
2013-03-28 14:01:00,50.9,35.8,30.34,East,82,1.0,4.0,56,0.00,,,0.00,WeatherCatV1.02B3,2013-03-28 19:01:00,
2013-03-28 14:06:00,51.2,36.9,30.33,SE,126,1.0,2.0,58,0.00,,,0.00,WeatherCatV1.02B3,2013-03-28 19:06:00,
2013-03-28 14:11:00,51.9,38.0,30.33,South,169,2.0,2.0,59,0.00,,,0.00,WeatherCatV1.02B3,2013-03-28 19:11:00,
2013-03-28 14:16:00,52.1,36.4,30.33,ESE,118,3.0,6.0,55,0.00,,,0.00,WeatherCatV1.02B3,2013-03-28 19:16:00,
2013-03-28 14:21:00,52.1,36.9,30.33,SE,134,1.0,3.0,56,0.00,,,0.00,WeatherCatV1.02B3,2013-03-28 19:21:00,
2013-03-28 14:26:00,52.6,36.9,30.32,ESE,121,0.0,2.0,55,0.00,,,0.00,WeatherCatV1.02B3,2013-03-28 19:26:00,
2013-03-28 14:31:00,52.6,37.4,30.32,SE,134,3.0,5.0,56,0.00,,,0.00,WeatherCatV1.02B3,2013-03-28 19:31:00,
2013-03-28 14:36:00,52.1,36.9,30.32,East,100,4.0,7.0,56,0.00,,,0.00,WeatherCatV1.02B3,2013-03-28 19:36:00,
2013-03-28 14:41:00,52.3,38.0,30.31,South,173,2.0,2.0,58,0.00,,,0.00,WeatherCatV1.02B3,2013-03-28 19:41:00,
2013-03-28 14:46:00,53.4,40.7,30.31,SSE,155,2.0,2.0,62,0.00,,,0.00,WeatherCatV1.02B3,2013-03-28 19:46:00,
2013-03-28 14:51:00,53.8,38.9,30.31,ESE,120,1.0,4.0,57,0.00,,,0.00,WeatherCatV1.02B3,2013-03-28 19:51:00,
2013-03-28 14:56:00,53.5,37.7,30.30,East,86,4.0,5.0,55,0.00,,,0.00,WeatherCatV1.02B3,2013-03-28 19:56:00,
2013-03-28 15:01:00,53.0,39.1,30.30,East,82,4.0,4.0,59,0.00,,,0.00,WeatherCatV1.02B3,2013-03-28 20:01:00,
2013-03-28 15:06:00,53.2,38.8,30.30,ESE,108,2.0,6.0,58,0.00,,,0.00,WeatherCatV1.02B3,2013-03-28 20:06:00,
2013-03-28 15:11:00,52.8,38.0,30.30,East,101,0.0,4.0,57,0.00,,,0.00,WeatherCatV1.02B3,2013-03-28 20:11:00,
2013-03-28 15:16:00,53.0,38.6,30.30,East,101,1.0,3.0,58,0.00,,,0.00,WeatherCatV1.02B3,2013-03-28 20:16:00,
2013-03-28 15:21:00,52.9,38.5,30.30,East,91,4.0,8.0,58,0.00,,,0.00,WeatherCatV1.02B3,2013-03-28 20:21:00,
2013-03-28 15:26:00,52.6,38.7,30.29,East,80,1.0,3.0,59,0.00,,,0.00,WeatherCatV1.02B3,2013-03-28 20:26:00,
2013-03-28 15:31:00,52.6,39.1,30.29,ESE,104,1.0,2.0,60,0.00,,,0.00,WeatherCatV1.02B3,2013-03-28 20:31:00,
2013-03-28 15:36:00,53.0,38.6,30.29,East,84,5.0,5.0,58,0.00,,,0.00,WeatherCatV1.02B3,2013-03-28 20:36:00,
2013-03-28 15:41:00,53.2,39.2,30.29,ESE,121,1.0,3.0,59,0.00,,,0.00,WeatherCatV1.02B3,2013-03-28 20:41:00,
2013-03-28 15:46:00,53.3,38.9,30.29,East,93,1.0,2.0,58,0.00,,,0.00,WeatherCatV1.02B3,2013-03-28 20:46:00,
2013-03-28 15:51:00,53.2,38.4,30.29,East,81,2.0,3.0,57,0.00,,,0.00,WeatherCatV1.02B3,2013-03-28 20:51:00,
2013-03-28 15:56:00,53.1,39.2,30.29,ESE,108,3.0,6.0,59,0.00,,,0.00,WeatherCatV1.02B3,2013-03-28 20:56:00,
2013-03-28 16:01:00,53.4,39.9,30.29,ESE,118,0.0,2.0,60,0.00,,,0.00,WeatherCatV1.02B3,2013-03-28 21:01:00,
2013-03-28 16:06:00,53.9,39.0,30.29,ESE,107,1.0,5.0,57,0.00,,,0.00,WeatherCatV1.02B3,2013-03-28 21:06:00,
2013-03-28 16:11:00,53.6,40.5,30.28,SE,143,2.0,4.0,61,0.00,,,0.00,WeatherCatV1.02B3,2013-03-28 21:11:00,
2013-03-28 16:16:00,53.8,39.4,30.28,ESE,121,1.0,2.0,58,0.00,,,0.00,WeatherCatV1.02B3,2013-03-28 21:16:00,
2013-03-28 16:21:00,53.4,39.4,30.28,SE,141,0.0,5.0,59,0.00,,,0.00,WeatherCatV1.02B3,2013-03-28 21:21:00,
2013-03-28 16:26:00,53.4,39.9,30.28,ESE,108,1.0,2.0,60,0.00,,,0.00,WeatherCatV1.02B3,2013-03-28 21:26:00,
2013-03-28 16:31:00,53.6,39.2,30.28,SSE,155,1.0,3.0,58,0.00,,,0.00,WeatherCatV1.02B3,2013-03-28 21:31:00,
2013-03-28 16:36:00,54.0,39.6,30.27,SE,146,2.0,6.0,58,0.00,,,0.00,WeatherCatV1.02B3,2013-03-28 21:36:00,
2013-03-28 16:41:00,54.1,40.1,30.27,SE,127,2.0,3.0,59,0.00,,,0.00,WeatherCatV1.02B3,2013-03-28 21:41:00,
2013-03-28 16:46:00,54.1,39.7,30.27,SE,146,0.0,4.0,58,0.00,,,0.00,WeatherCatV1.02B3,2013-03-28 21:46:00,
2013-03-28 16:51:00,54.0,40.0,30.27,ESE,122,2.0,5.0,59,0.00,,,0.00,WeatherCatV1.02B3,2013-03-28 21:51:00,
2013-03-28 16:56:00,53.8,39.8,30.27,East,100,1.0,2.0,59,0.00,,,0.00,WeatherCatV1.02B3,2013-03-28 21:56:00,
2013-03-28 17:01:00,53.7,39.7,30.27,ESE,118,1.0,2.0,59,0.00,,,0.00,WeatherCatV1.02B3,2013-03-28 22:01:00,
2013-03-28 17:06:00,53.5,39.1,30.27,ESE,122,3.0,4.0,58,0.00,,,0.00,WeatherCatV1.02B3,2013-03-28 22:06:00,
2013-03-28 17:11:00,53.5,40.4,30.26,ENE,70,1.0,3.0,61,0.00,,,0.00,WeatherCatV1.02B3,2013-03-28 22:11:00,
2013-03-28 17:16:00,53.6,40.1,30.26,SE,139,1.0,3.0,60,0.00,,,0.00,WeatherCatV1.02B3,2013-03-28 22:16:00,
2013-03-28 17:21:00,53.5,39.1,30.26,ESE,104,3.0,5.0,58,0.00,,,0.00,WeatherCatV1.02B3,2013-03-28 22:21:00,
2013-03-28 17:26:00,53.4,39.0,30.26,ESE,111,2.0,5.0,58,0.00,,,0.00,WeatherCatV1.02B3,2013-03-28 22:26:00,
2013-03-28 17:31:00,53.4,39.4,30.27,ESE,107,1.0,2.0,59,0.00,,,0.00,WeatherCatV1.02B3,2013-03-28 22:31:00,
2013-03-28 17:36:00,53.3,39.3,30.26,ENE,72,4.0,5.0,59,0.00,,,0.00,WeatherCatV1.02B3,2013-03-28 22:36:00,
2013-03-28 17:41:00,53.2,39.7,30.26,East,94,2.0,5.0,60,0.00,,,0.00,WeatherCatV1.02B3,2013-03-28 22:41:00,
2013-03-28 17:46:00,53.0,39.1,30.26,East,92,4.0,6.0,59,0.00,,,0.00,WeatherCatV1.02B3,2013-03-28 22:46:00,
2013-03-28 17:51:00,52.8,39.3,30.26,East,94,4.0,4.0,60,0.00,,,0.00,WeatherCatV1.02B3,2013-03-28 22:51:00,
2013-03-28 17:56:00,52.6,39.1,30.27,East,82,3.0,4.0,60,0.00,,,0.00,WeatherCatV1.02B3,2013-03-28 22:56:00,
2013-03-28 18:01:00,52.6,39.1,30.26,East,82,1.0,3.0,60,0.00,,,0.00,WeatherCatV1.02B3,2013-03-28 23:01:00,
2013-03-28 18:06:00,52.5,39.4,30.27,East,89,2.0,5.0,61,0.00,,,0.00,WeatherCatV1.02B3,2013-03-28 23:06:00,
2013-03-28 18:11:00,52.4,39.3,30.27,East,98,0.0,1.0,61,0.00,,,0.00,WeatherCatV1.02B3,2013-03-28 23:11:00,
2013-03-28 18:16:00,52.4,39.3,30.26,ESE,105,4.0,4.0,61,0.00,,,0.00,WeatherCatV1.02B3,2013-03-28 23:16:00,
2013-03-28 18:21:00,52.3,39.3,30.27,East,82,2.0,3.0,61,0.00,,,0.00,WeatherCatV1.02B3,2013-03-28 23:21:00,
2013-03-28 18:26:00,52.2,39.6,30.27,East,94,2.0,5.0,62,0.00,,,0.00,WeatherCatV1.02B3,2013-03-28 23:26:00,
2013-03-28 18:31:00,52.1,39.5,30.27,ENE,67,2.0,3.0,62,0.00,,,0.00,WeatherCatV1.02B3,2013-03-28 23:31:00,
2013-03-28 18:36:00,52.0,39.8,30.26,East,92,2.0,5.0,63,0.00,,,0.00,WeatherCatV1.02B3,2013-03-28 23:36:00,
2013-03-28 18:41:00,51.9,39.7,30.27,ESE,107,1.0,3.0,63,0.00,,,0.00,WeatherCatV1.02B3,2013-03-28 23:41:00,
2013-03-28 18:46:00,51.8,39.6,30.27,ENE,70,2.0,3.0,63,0.00,,,0.00,WeatherCatV1.02B3,2013-03-28 23:46:00,
2013-03-28 18:51:00,51.7,39.9,30.27,East,96,1.0,1.0,64,0.00,,,0.00,WeatherCatV1.02B3,2013-03-28 23:51:00,
2013-03-28 18:56:00,51.6,39.8,30.27,ESE,105,1.0,4.0,64,0.00,,,0.00,WeatherCatV1.02B3,2013-03-28 23:56:00,
2013-03-28 19:01:00,51.5,39.7,30.27,ENE,71,2.0,3.0,64,0.00,,,0.00,WeatherCatV1.02B3,2013-03-29 00:01:00,
2013-03-28 19:06:00,51.4,39.6,30.27,ESE,110,1.0,1.0,64,0.00,,,0.00,WeatherCatV1.02B3,2013-03-29 00:06:00,
2013-03-28 19:11:00,51.2,39.4,30.27,ESE,103,1.0,2.0,64,0.00,,,0.00,WeatherCatV1.02B3,2013-03-29 00:11:00,
2013-03-28 19:16:00,51.1,39.7,30.27,East,96,1.0,2.0,65,0.00,,,0.00,WeatherCatV1.02B3,2013-03-29 00:16:00,
2013-03-28 19:21:00,50.9,40.0,30.27,ENE,75,1.0,1.0,66,0.00,,,0.00,WeatherCatV1.02B3,2013-03-29 00:21:00,
2013-03-28 19:26:00,50.7,39.8,30.27,ENE,72,1.0,2.0,66,0.00,,,0.00,WeatherCatV1.02B3,2013-03-29 00:26:00,
2013-03-28 19:31:00,50.6,39.3,30.27,East,96,0.0,2.0,65,0.00,,,0.00,WeatherCatV1.02B3,2013-03-29 00:31:00,
2013-03-28 19:36:00,50.6,39.3,30.27,ESE,107,0.0,2.0,65,0.00,,,0.00,WeatherCatV1.02B3,2013-03-29 00:36:00,
2013-03-28 19:41:00,50.5,39.2,30.27,ESE,106,1.0,3.0,65,0.00,,,0.00,WeatherCatV1.02B3,2013-03-29 00:41:00,
2013-03-28 19:46:00,50.5,39.2,30.27,East,79,1.0,2.0,65,0.00,,,0.00,WeatherCatV1.02B3,2013-03-29 00:46:00,
2013-03-28 19:51:00,50.4,38.7,30.27,ENE,77,2.0,2.0,64,0.00,,,0.00,WeatherCatV1.02B3,2013-03-29 00:51:00,
2013-03-28 19:56:00,50.3,39.0,30.27,East,89,2.0,2.0,65,0.00,,,0.00,WeatherCatV1.02B3,2013-03-29 00:56:00,
2013-03-28 20:01:00,50.1,38.8,30.27,East,84,1.0,2.0,65,0.00,,,0.00,WeatherCatV1.02B3,2013-03-29 01:01:00,
2013-03-28 20:06:00,50.2,39.3,30.27,East,82,0.0,2.0,66,0.00,,,0.00,WeatherCatV1.02B3,2013-03-29 01:06:00,
2013-03-28 20:11:00,50.0,39.1,30.27,East,90,1.0,2.0,66,0.00,,,0.00,WeatherCatV1.02B3,2013-03-29 01:11:00,
2013-03-28 20:16:00,49.8,39.3,30.27,East,101,1.0,1.0,67,0.00,,,0.00,WeatherCatV1.02B3,2013-03-29 01:16:00,
2013-03-28 20:21:00,49.6,39.1,30.27,East,80,2.0,2.0,67,0.00,,,0.00,WeatherCatV1.02B3,2013-03-29 01:21:00,
2013-03-28 20:26:00,49.6,39.1,30.27,East,84,0.0,1.0,67,0.00,,,0.00,WeatherCatV1.02B3,2013-03-29 01:26:00,
2013-03-28 20:31:00,49.6,39.1,30.27,East,98,1.0,2.0,67,0.00,,,0.00,WeatherCatV1.02B3,2013-03-29 01:31:00,
2013-03-28 20:36:00,49.6,39.5,30.27,East,89,1.0,2.0,68,0.00,,,0.00,WeatherCatV1.02B3,2013-03-29 01:36:00,
2013-03-28 20:41:00,49.5,39.4,30.27,ESE,102,1.0,3.0,68,0.00,,,0.00,WeatherCatV1.02B3,2013-03-29 01:41:00,
2013-03-28 20:46:00,49.5,39.4,30.27,East,88,1.0,1.0,68,0.00,,,0.00,WeatherCatV1.02B3,2013-03-29 01:46:00,
2013-03-28 20:51:00,49.5,39.8,30.28,ENE,75,1.0,1.0,69,0.00,,,0.00,WeatherCatV1.02B3,2013-03-29 01:51:00,
2013-03-28 20:56:00,49.5,39.8,30.28,East,96,1.0,2.0,69,0.00,,,0.00,WeatherCatV1.02B3,2013-03-29 01:56:00,
2013-03-28 21:01:00,49.4,39.7,30.28,ESE,110,0.0,0.0,69,0.00,,,0.00,WeatherCatV1.02B3,2013-03-29 02:01:00,
2013-03-28 21:06:00,49.2,39.8,30.28,East,82,1.0,2.0,70,0.00,,,0.00,WeatherCatV1.02B3,2013-03-29 02:06:00,
2013-03-28 21:11:00,49.1,39.7,30.27,East,84,1.0,4.0,70,0.00,,,0.00,WeatherCatV1.02B3,2013-03-29 02:11:00,
2013-03-28 21:16:00,49.1,39.7,30.28,East,100,1.0,2.0,70,0.00,,,0.00,WeatherCatV1.02B3,2013-03-29 02:16:00,
2013-03-28 21:21:00,49.0,39.6,30.28,East,85,2.0,3.0,70,0.00,,,0.00,WeatherCatV1.02B3,2013-03-29 02:21:00,
2013-03-28 21:26:00,48.9,39.6,30.28,East,90,2.0,4.0,70,0.00,,,0.00,WeatherCatV1.02B3,2013-03-29 02:26:00,
2013-03-28 21:31:00,48.9,39.6,30.28,East,88,2.0,2.0,70,0.00,,,0.00,WeatherCatV1.02B3,2013-03-29 02:31:00,
2013-03-28 21:36:00,48.8,39.5,30.28,East,88,1.0,2.0,70,0.00,,,0.00,WeatherCatV1.02B3,2013-03-29 02:36:00,
2013-03-28 21:41:00,48.8,39.5,30.28,ENE,74,2.0,2.0,70,0.00,,,0.00,WeatherCatV1.02B3,2013-03-29 02:41:00,
2013-03-28 21:46:00,48.8,39.5,30.28,ESE,102,1.0,2.0,70,0.00,,,0.00,WeatherCatV1.02B3,2013-03-29 02:46:00,
2013-03-28 21:51:00,48.9,39.2,30.28,ENE,77,3.0,7.0,69,0.00,,,0.00,WeatherCatV1.02B3,2013-03-29 02:51:00,
2013-03-28 21:56:00,48.9,39.2,30.28,ESE,112,2.0,6.0,69,0.00,,,0.00,WeatherCatV1.02B3,2013-03-29 02:56:00,
2013-03-28 22:01:00,48.8,39.5,30.28,East,100,3.0,3.0,70,0.00,,,0.00,WeatherCatV1.02B3,2013-03-29 03:01:00,
2013-03-28 22:06:00,48.7,39.4,30.28,ESE,115,2.0,4.0,70,0.00,,,0.00,WeatherCatV1.02B3,2013-03-29 03:06:00,
2013-03-28 22:11:00,48.5,39.2,30.28,East,86,1.0,4.0,70,0.00,,,0.00,WeatherCatV1.02B3,2013-03-29 03:11:00,
2013-03-28 22:16:00,48.4,39.1,30.28,East,84,1.0,3.0,70,0.00,,,0.00,WeatherCatV1.02B3,2013-03-29 03:16:00,
2013-03-28 22:21:00,48.3,39.0,30.28,ESE,103,2.0,3.0,70,0.00,,,0.00,WeatherCatV1.02B3,2013-03-29 03:21:00,
2013-03-28 22:26:00,48.2,39.2,30.28,East,101,1.0,4.0,71,0.00,,,0.00,WeatherCatV1.02B3,2013-03-29 03:26:00,
2013-03-28 22:31:00,48.0,39.1,30.28,East,92,2.0,4.0,71,0.00,,,0.00,WeatherCatV1.02B3,2013-03-29 03:31:00,
2013-03-28 22:36:00,48.0,38.7,30.28,ESE,107,2.0,4.0,70,0.00,,,0.00,WeatherCatV1.02B3,2013-03-29 03:36:00,
2013-03-28 22:41:00,47.9,38.6,30.27,East,81,4.0,4.0,70,0.00,,,0.00,WeatherCatV1.02B3,2013-03-29 03:41:00,
2013-03-28 22:46:00,48.0,38.3,30.27,ESE,113,3.0,5.0,69,0.00,,,0.00,WeatherCatV1.02B3,2013-03-29 03:46:00,
2013-03-28 22:51:00,47.9,38.6,30.27,ESE,111,1.0,2.0,70,0.00,,,0.00,WeatherCatV1.02B3,2013-03-29 03:51:00,
2013-03-28 22:56:00,47.7,38.0,30.27,ESE,110,2.0,4.0,69,0.00,,,0.00,WeatherCatV1.02B3,2013-03-29 03:56:00,
2013-03-28 23:00:00,47.7,38.0,30.27,East,99,1.0,3.0,69,0.00,,,0.00,WeatherCatV1.02B3,2013-03-29 04:00:00,
2013-03-28 23:01:00,47.7,38.0,30.27,East,98,2.0,3.0,69,0.00,,,0.00,WeatherCatV1.02B3,2013-03-29 04:01:00,
2013-03-28 23:06:00,47.6,37.9,30.27,ESE,110,1.0,3.0,69,0.00,,,0.00,WeatherCatV1.02B3,2013-03-29 04:06:00,
2013-03-28 23:11:00,47.6,37.9,30.27,East,96,2.0,5.0,69,0.00,,,0.00,WeatherCatV1.02B3,2013-03-29 04:11:00,
2013-03-28 23:16:00,47.6,37.9,30.27,ENE,74,2.0,2.0,69,0.00,,,0.00,WeatherCatV1.02B3,2013-03-29 04:16:00,
2013-03-28 23:21:00,47.6,37.9,30.27,SE,139,2.0,3.0,69,0.00,,,0.00,WeatherCatV1.02B3,2013-03-29 04:21:00,
2013-03-28 23:26:00,47.7,37.7,30.26,SE,143,1.0,3.0,68,0.00,,,0.00,WeatherCatV1.02B3,2013-03-29 04:26:00,
2013-03-28 23:31:00,47.7,37.7,30.26,East,98,2.0,5.0,68,0.00,,,0.00,WeatherCatV1.02B3,2013-03-29 04:31:00,
2013-03-28 23:36:00,47.7,37.7,30.27,ESE,104,1.0,1.0,68,0.00,,,0.00,WeatherCatV1.02B3,2013-03-29 04:36:00,
2013-03-28 23:41:00,47.7,37.7,30.27,East,101,1.0,2.0,68,0.00,,,0.00,WeatherCatV1.02B3,2013-03-29 04:41:00,
2013-03-28 23:46:00,47.7,37.7,30.27,East,82,1.0,3.0,68,0.00,,,0.00,WeatherCatV1.02B3,2013-03-29 04:46:00,
2013-03-28 23:51:00,47.7,37.7,30.27,ESE,115,0.0,1.0,68,0.00,,,0.00,WeatherCatV1.02B3,2013-03-29 04:51:00,
2013-03-28 23:56:00,47.7,37.3,30.27,ESE,120,0.0,1.0,67,0.00,,,0.00,WeatherCatV1.02B3,2013-03-29 04:56:00,